Weather History for KRAP - January, 2013

Change the Weather History Date:

Sunday, January 6, 2013

  Actual Average Record
Temperature  
Mean Temperature 34 °F 25 °F  
Max Temperature 57 °F 37 °F 64 °F (1954)
Min Temperature 10 °F 13 °F -21 °F (1982)
Degree Days  
Heating Degree Days 31 40  
Month to date heating degree days 240 242  
Since 1 July heating degree days 2987 3158  
Cooling Degree Days 0 0  
Month to date cooling degree days 0 0  
Year to date cooling degree days 0 0  
Moisture  
Dew Point 13 °F    
Average Humidity 49    
Maximum Humidity 83    
Minimum Humidity 15    
Precipitation  
Precipitation 0.00 in 0.01 in 0.15 in (1999)
Month to date precipitation T 0.07  
Year to date precipitation T 0.07  
Snow  
Snow 0.00 in 0.20 in 1.50 in (2010)
Month to date snowfall T 0.9  
Since 1 July snowfall 9.6 14.1  
Snow Depth 0.00 in    
Sea Level Pressure  
Sea Level Pressure 30.05 in    
Wind  
Wind Speed 6 mph (South)    
Max Wind Speed 18 mph    
Max Gust Speed 28 mph    
Visibility 10 miles    
Events      
T = Trace of Precipitation, MM = Missing Value Source: NWS Daily Summary

Daily Weather History Graph

Daily Weather History Graph

Search for Another Location

Airport or City:

Trip Planner

Search our weather history database for the weather conditions in past years. The results will help you decide how hot, cold, wet, or windy it might be!

Date:

Astronomy

Jan. 06, 2013 Rise Set
Actual Time 7:26 AM MST 4:29 PM MST
Civil Twilight 6:54 AM MST 5:02 PM MST
Nautical Twilight 6:17 AM MST 5:38 PM MST
Astronomical Twilight 5:43 AM MST 6:13 PM MST
Moon 1:39 AM MST (1/6) 12:02 PM MST (1/6)
Length of Visible Light 10h 08m
Length of Day
9h 03m
Waning Crescent, 32% of the Moon is Illuminated
Jan 6
Waning Crescent
Jan 11
New
Jan 18
First Quarter
Jan 26
Full
Feb 3
Last Quarter

Hourly Weather History & Observations

Time (MST) Temp. Windchill Dew Point Humidity Pressure Visibility Wind Dir Wind Speed Gust Speed Precip Events Conditions
12:52 AM 14.0 °F - 9.0 °F 80% 30.28 in 10.0 mi Calm Calm - N/A   Clear
1:52 AM 19.9 °F 10.1 °F 10.9 °F 68% 30.26 in 10.0 mi West 8.1 mph - N/A   Clear
2:52 AM 16.0 °F - 9.0 °F 74% 30.26 in 10.0 mi Calm Calm - N/A   Clear
3:52 AM 15.1 °F - 8.1 °F 74% 30.24 in 10.0 mi Calm Calm - N/A   Clear
4:52 AM 17.1 °F 10.0 °F 9.0 °F 71% 30.24 in 10.0 mi SE 4.6 mph - N/A   Clear
5:52 AM 16.0 °F 8.8 °F 9.0 °F 74% 30.21 in 10.0 mi ESE 4.6 mph - N/A   Clear
6:52 AM 10.9 °F 0.2 °F 7.0 °F 84% 30.21 in 10.0 mi ESE 6.9 mph - N/A   Clear
7:52 AM 10.0 °F 0.4 °F 6.1 °F 84% 30.20 in 10.0 mi SE 5.8 mph - N/A   Clear
8:52 AM 19.0 °F 10.0 °F 12.0 °F 74% 30.16 in 10.0 mi SE 6.9 mph - N/A   Clear
9:52 AM 30.0 °F 21.7 °F 17.1 °F 59% 30.09 in 10.0 mi SE 9.2 mph - N/A   Clear
10:52 AM 33.1 °F 23.9 °F 16.0 °F 50% 30.03 in 10.0 mi South 12.7 mph - N/A   Clear
11:52 AM 34.0 °F 23.8 °F 18.0 °F 52% 29.97 in 10.0 mi South 16.1 mph - N/A   Clear
12:52 PM 43.0 °F 38.2 °F 21.9 °F 43% 29.91 in 10.0 mi SE 8.1 mph - N/A   Clear
1:52 PM 50.0 °F - 19.9 °F 31% 29.87 in 10.0 mi Variable 5.8 mph - N/A   Clear
2:52 PM 55.0 °F - 9.0 °F 16% 29.87 in 10.0 mi SW 12.7 mph - N/A   Clear
3:52 PM 50.0 °F - 10.0 °F 20% 29.87 in 10.0 mi WSW 8.1 mph - N/A   Clear
4:52 PM 37.9 °F 34.4 °F 17.1 °F 43% 29.90 in 10.0 mi NNW 4.6 mph - N/A   Clear
5:52 PM 34.0 °F 25.5 °F 19.0 °F 54% 29.93 in 10.0 mi North 11.5 mph - N/A   Clear
6:52 PM 30.9 °F 25.2 °F 12.9 °F 47% 29.96 in 10.0 mi WNW 5.8 mph - N/A   Clear
7:52 PM 32.0 °F - 10.9 °F 42% 29.96 in 10.0 mi Calm Calm - N/A   Clear
8:52 PM 28.9 °F 25.2 °F 14.0 °F 54% 29.94 in 10.0 mi North 3.5 mph - N/A   Clear
9:52 PM 35.1 °F 29.3 °F 14.0 °F 42% 29.90 in 10.0 mi NW 6.9 mph - N/A   Clear
10:52 PM 37.0 °F 31.6 °F 17.1 °F 44% 29.91 in 10.0 mi NNW 6.9 mph - N/A   Clear
11:52 PM 34.0 °F 28.8 °F 16.0 °F 48% 29.92 in 10.0 mi NNW 5.8 mph - N/A   Clear